Location: Lawrence Hall of Science
(37.8785°N, 122.2415°W)
Time: 23:34:35
(UTC-07:00)

ARGOS - Visible Passes

Search period start: 24 April 2015 00:00
Search period end: 04 May 2015 00:00
Orbit: 821 x 834 km, 98.7° (Epoch: 24 April)

Date Brightness Start Highest point End Pass type
(mag) Time Alt. Az. Time Alt. Az. Time Alt. Az.
24 Apr 4.3 21:44:28 26° ENE 21:45:01 26° ENE 21:49:29 10° NNE visible
24 Apr 4.4 23:26:00 35° WNW 23:26:00 35° WNW 23:30:05 10° NNW visible
25 Apr 4.7 21:25:40 17° E 21:26:42 18° ENE 21:30:22 10° NNE visible
25 Apr 3.7 23:07:12 52° WNW 23:07:12 52° WNW 23:11:52 10° NNW visible
26 Apr 5.1 21:06:52 11° E 21:08:26 12° ENE 21:10:44 10° NE visible
26 Apr 3.2 22:48:23 78° NW 22:48:23 78° NW 22:53:29 10° NNW visible
27 Apr 3.1 22:29:36 67° ENE 22:29:36 67° ENE 22:34:58 10° N visible
28 Apr 5.6 00:11:06 14° W 00:11:06 14° W 00:13:00 10° WNW visible
28 Apr 3.5 22:10:48 44° E 22:11:10 45° ENE 22:16:19 10° N visible
28 Apr 5.1 23:52:18 21° W 23:52:18 21° W 23:55:39 10° NW visible
29 Apr 4.1 21:52:00 29° E 21:52:48 31° ENE 21:57:32 10° N visible
29 Apr 4.5 23:33:30 31° W 23:33:30 31° W 23:37:46 10° NW visible
30 Apr 4.6 21:33:12 20° E 21:34:27 21° ENE 21:38:32 10° NNE visible
30 Apr 3.9 23:14:43 47° W 23:14:43 47° W 23:19:37 10° NNW visible
01 May 5.0 21:14:24 13° E 21:16:10 15° ENE 21:19:11 10° NNE visible
01 May 3.2 22:55:55 71° W 22:55:55 71° W 23:01:18 10° NNW visible
02 May 3.0 22:37:07 76° ESE 22:37:24 79° ENE 22:42:50 10° N visible
03 May 5.7 00:18:38 11° W 00:18:38 11° W 00:19:55 10° WNW visible
03 May 3.3 22:18:20 50° E 22:18:58 53° ENE 22:24:15 10° N visible
